User: anonymous   Login
Location: Fort Wayne
(41.1310°N, 85.1290°W)
Time: 19:59:31
(UTC-05:00)
Language:

Meteor 2-10 Rocket - Orbit

View from above orbital plane
View from above orbital plane
View from above satellite
View from above satellite

Ground track
Ground track

The orbit data is extracted from the following two-line orbital elements,

1 14453U 83109B   15058.98052327  .00000122  00000-0  44972-4 0  9998
2 14453 081.1645 231.4878 0104579 334.7046 024.9031 14.24570734627898
Epoch (UTC): 27 February 2015 23:31:57
Eccentricity: 0.0104579
inclination: 81.1645°
perigee height: 735 km
apogee height: 885 km
right ascension of ascending node: 231.4878°
argument of perigee: 334.7046°
revolutions per day: 14.24570734
mean anomaly at epoch: 24.9031°
orbit number at epoch: 62789

The dashed part of the orbit path shows where the satellite is in the earth's shadow,  

DLR